Temp
15 15 16 17 17 17 16 16 16 15 15 15 15 15 16 16 16 16 14 12 12 12 12 12 11 11 10 10 10 10 10 10 9 9 8 8 8 8 7 7 7 7 7
15 15 15 16 17 17 17 17 16 16 16 16 15 15 15 15 15 15 15 13 12 12 12 12 11 11 11 10 10 10 10 10 9 9 8 8 8 7 7 7 7 7 7
15 15 16 16 17 17 17 17 16 16 16 16 15 15 15 15 15 15 15 15 12 12 12 12 12 11 11 10 10 10 10 9 9 9 9 8 8 7 7 7 7 7 7
16 16 16 16 16 16 16 16 16 16 16 16 15 15 15 15 15 15 15 15 15 14 12 12 12 11 11 11 10 10 10 9 9 9 9 8 8 8 7 7 7 7 7
18 16 16 16 15 16 16 16 16 16 16 16 16 15 15 15 14 15 15 14 14 15 15 13 11 11 11 11 11 10 10 9 9 9 9 8 8 8 7 8 7 7 7
16 16 16 15 15 16 15 15 15 16 16 16 16 15 15 15 15 15 15 14 14 14 14 14 12 12 11 11 11 11 11 10 10 9 9 9 8 8 8 8 8 8 8
15 15 16 15 14 15 16 15 15 15 15 15 15 15 15 14 14 15 15 15 15 14 14 14 14 14 13 12 11 11 11 11 11 10 9 9 8 8 7 7 7 8 8
14 14 14 14 14 15 15 14 14 13 14 13 16 17 17 16 15 15 15 15 15 15 14 13 13 13 13 14 11 11 11 11 11 11 10 9 8 8 8 7 7 6 7
14 13 15 16 16 14 15 14 13 14 15 13 14 17 18 19 18 17 15 15 14 13 14 12 13 13 12 12 12 11 11 11 11 11 11 10 9 8 8 7 7 6 6
13 14 14 15 15 15 14 14 14 15 15 15 13 14 16 17 18 17 16 15 14 13 12 12 13 11 11 12 11 12 11 11 11 11 10 10 10 10 9 8 7 7 6
12 14 14 14 15 16 15 15 16 15 15 16 15 15 14 14 15 16 18 17 14 13 12 12 11 11 12 12 11 11 12 11 11 10 10 10 9 9 9 9 8 7 7
12 13 13 14 14 16 15 16 16 16 16 15 16 15 16 16 16 16 16 16 15 14 12 12 12 12 11 11 10 11 11 11 10 9 9 9 9 9 8 9 9 8 7
12 13 13 14 15 15 16 16 15 16 15 15 15 15 15 15 15 14 13 12 12 11 11 11 11 11 11 11 11 11 11 10 10 9 9 9 9 8 8 7 8 8 8
13 13 14 15 15 15 16 15 14 15 15 14 14 15 15 15 14 13 12 10 10 9 9 10 10 11 10 11 9 9 9 9 8 8 8 8 7 7 7 7 7 7 7
14 13 13 13 14 14 15 14 15 15 15 15 15 15 15 14 14 12 11 11 11 10 9 11 11 9 9 9 8 8 8 7 8 8 7 7 7 7 7 6 7 7 6
15 15 14 14 14 15 15 15 15 15 15 15 15 15 14 14 12 11 11 10 10 10 11 12 9 9 8 8 7 7 7 7 7 7 7 6 6 6 6 6 6 5 5
15 15 14 15 15 16 16 15 15 15 16 15 15 14 14 13 11 11 11 10 9 9 9 8 8 8 7 7 6 7 6 6 6 6 5 6 5 5 5 5 5 5 5
15 15 15 15 15 15 15 15 15 15 15 15 14 13 12 12 11 11 11 10 9 8 8 7 7 6 6 6 7 5 5 6 6 6 5 5 5 4 4 4 4 4 4
15 15 15 15 15 15 15 15 15 15 15 13 12 12 12 11 11 11 9 8 7 7 7 7 6 6 7 4 4 4 5 5 5 5 4 3 3 3 4 4 4 3 3
15 15 15 14 14 14 14 14 13 13 13 13 13 12 12 12 11 9 8 7 6 6 6 6 7 4 4 4 4 5 6 6 5 5 4 3 2 2 2 1 1 1 0
14 15 15 14 14 13 12 12 12 12 12 12 11 11 12 11 10 9 8 7 6 6 5 6 4 4 3 4 4 6 5 4 4 4 4 3 3 3 2 2 1 1 0
14 15 15 15 14 13 13 13 13 11 12 12 11 10 10 9 8 7 7 6 5 4 3 3 3 3 4 5 4 4 4 3 4 4 2 2 2 2 2 2 2 0 -1
15 14 14 15 14 14 13 12 13 12 11 11 10 9 7 6 6 5 4 4 4 4 4 3 3 3 3 3 3 2 2 2 2 2 1 1 1 2 2 2 1 -0 -1
15 14 14 14 14 12 12 13 13 11 9 8 7 6 6 4 4 4 3 2 2 1 1 2 1 1 1 1 0 0 0 -0 -0 1 1 1 1 1 1 1 -0 -1 -1
13 13 12 12 12 12 11 11 10 8 6 5 3 3 3 3 2 2 2 -0 -2 -1 -1 -0 -1 -1 -1 -2 -2 -2 -1 -0 -0 1 1 -0 1 0 -0 -0 0 -0 -2
12 11 11 10 9 9 8 7 7 6 2 1 1 0 1 1 -0 -0 0 0 -2 -2 -3 -3 -3 -3 -3 -4 -4 -4 -2 -2 -1 -1 1 -2 -1 -1 -1 -1 -1 -2 -1
Height
829 836 840 845 850 854 859 861 864 866 868 870 872 874 876 877 878 880 884 886 889 890 891 892 893 895 897 897 897 898 898 897 897 897 898 899 899 899 899 898 898 897 897
828 833 839 845 849 854 857 860 863 866 867 870 872 874 877 878 879 882 884 886 888 890 892 893 893 895 897 898 898 899 899 898 897 897 898 899 900 900 900 899 898 897 896
827 832 839 844 849 853 856 860 863 866 866 869 872 873 876 877 880 881 883 886 889 889 892 893 894 895 896 897 898 898 898 898 898 898 899 899 899 899 900 898 898 897 896
828 832 838 843 848 852 855 859 862 865 866 868 871 873 875 877 879 880 883 884 886 889 890 890 891 892 894 896 896 896 896 896 897 897 897 898 898 898 898 898 898 896 895
826 832 839 844 845 851 854 858 861 864 864 867 869 872 875 876 878 878 880 882 884 885 886 886 889 890 892 893 893 894 894 893 893 895 895 896 896 897 897 896 895 894 893
827 834 839 842 845 850 854 857 859 862 863 865 868 871 872 874 876 876 877 878 880 882 884 884 885 886 888 890 890 891 892 893 892 892 892 893 894 894 894 894 893 892 891
829 833 837 840 844 849 853 854 858 861 862 865 866 869 870 871 871 872 872 873 875 877 879 880 881 882 882 884 886 887 888 888 888 889 890 890 891 892 891 891 890 889 889
828 831 834 837 842 847 851 851 855 858 861 862 864 864 863 866 866 868 868 869 870 872 874 875 876 877 879 880 880 881 883 884 885 885 886 887 887 888 889 888 887 887 886
825 828 831 835 839 843 844 849 853 855 856 858 860 859 857 854 856 860 862 864 865 866 867 868 869 870 872 873 874 875 877 878 879 881 882 883 883 884 884 884 884 883 883
821 824 829 835 837 839 843 846 848 850 851 853 857 858 856 855 853 855 858 858 860 861 861 864 866 866 868 867 868 869 870 872 873 874 876 878 879 879 878 877 877 877 876
818 820 828 832 836 836 839 844 844 845 847 849 851 853 854 854 854 854 850 852 856 857 857 857 861 860 859 861 861 862 863 865 867 869 871 872 873 875 875 873 871 871 871
813 816 823 828 831 831 835 838 838 840 841 845 847 848 848 847 847 849 848 848 850 852 853 853 854 853 853 853 853 855 858 860 861 861 863 865 865 866 867 867 866 864 864
806 810 816 820 821 823 829 830 835 836 837 841 841 842 843 842 842 842 845 846 845 846 845 848 846 847 847 847 848 849 851 853 855 855 856 857 858 859 859 859 859 859 858
797 803 807 810 814 819 822 827 831 827 832 833 834 835 836 835 837 835 836 839 841 842 842 842 842 842 843 843 844 845 846 847 848 849 850 850 852 852 852 851 851 851 851
792 797 801 805 808 813 815 820 819 821 825 826 826 827 828 829 830 829 830 830 834 835 835 833 836 836 838 838 839 841 843 843 842 843 844 845 845 845 845 846 845 845 844
784 787 792 797 802 806 809 811 812 814 817 817 818 819 820 821 821 821 824 823 825 828 826 825 827 829 831 834 835 836 839 837 838 838 838 839 839 839 839 839 838 838 836
774 778 783 789 792 796 799 802 803 806 808 808 809 809 810 813 812 813 815 816 817 818 818 821 823 823 826 829 832 833 834 833 834 833 833 833 833 833 833 832 831 830 828
767 771 777 781 784 786 789 792 795 796 797 798 800 800 800 803 806 805 800 805 808 808 811 812 816 819 821 823 828 829 829 830 831 830 828 828 827 826 826 824 823 822 820
755 761 767 770 773 776 778 780 782 785 788 791 791 789 792 794 793 797 796 800 801 802 803 807 811 815 820 819 822 823 824 825 826 825 823 821 820 818 817 816 815 814 811
746 750 753 757 761 764 768 771 772 773 777 777 778 779 779 780 783 783 790 792 794 797 800 802 806 811 813 816 819 819 820 821 821 820 818 816 814 813 811 810 807 805 803
739 742 745 748 751 754 756 759 762 764 765 766 767 768 767 772 774 776 779 782 786 790 794 797 802 805 809 813 814 815 817 817 816 815 813 812 810 809 808 806 803 800 797
731 735 738 740 743 745 746 749 752 755 755 755 756 758 762 765 767 771 773 774 778 783 787 791 796 801 805 808 810 812 813 813 812 810 810 808 807 803 802 800 797 793 791
722 725 729 733 735 737 739 742 746 747 747 747 748 751 754 758 762 764 767 772 777 781 785 788 793 798 801 804 806 809 810 809 808 807 806 803 802 798 796 793 790 787 783
712 715 719 722 726 727 730 734 737 738 739 741 743 745 748 753 757 759 764 771 775 779 784 788 793 795 797 800 803 804 805 805 804 802 801 797 794 791 789 786 783 779 776
703 707 711 714 717 719 722 725 728 730 733 737 741 744 747 752 757 762 760 773 776 780 784 788 790 791 792 795 798 801 801 801 798 796 795 792 789 785 782 778 775 773 769
697 702 705 709 711 714 716 719 721 725 731 735 741 746 751 754 760 768 764 765 774 781 784 790 791 791 792 793 794 796 798 798 797 793 789 789 785 784 775 771 771 769 765
Wind_Speed
29 24 24 26 26 23 23 20 16 17 16 15 14 14 13 13 14 14 15 18 16 15 15 14 14 13 12 12 12 11 10 10 10 10 9 9 8 8 8 8 8 8 8
28 27 24 24 24 23 22 19 18 18 17 15 14 13 12 13 12 12 13 15 16 16 14 13 13 13 12 11 10 9 9 9 9 10 9 8 7 6 5 5 5 6 5
30 27 24 22 23 23 21 19 18 16 16 15 14 13 12 11 11 11 12 11 12 14 15 15 13 13 13 12 11 9 8 8 8 8 8 8 7 5 4 3 2 2 2
33 30 22 22 22 21 20 19 19 16 16 15 14 12 11 11 11 11 10 11 12 12 15 16 17 17 15 14 12 11 10 9 9 9 9 9 8 7 6 3 2 2 1
34 26 24 23 21 20 20 19 18 17 16 14 12 12 11 10 11 12 12 12 13 13 13 17 19 17 17 16 14 14 13 12 11 11 11 11 10 10 8 6 5 4 4
34 25 25 23 24 21 20 19 17 14 14 13 12 11 11 10 11 11 13 13 14 15 14 13 16 18 20 19 18 17 15 14 13 13 14 13 13 13 11 9 8 6 5
28 26 25 23 22 22 23 19 16 14 12 13 11 8 9 12 12 14 15 15 16 16 17 17 16 16 19 22 22 19 18 17 17 17 16 17 16 17 16 13 11 9 8
25 24 27 28 25 19 19 17 17 14 11 15 10 9 5 11 17 18 17 17 17 17 17 18 20 19 17 17 22 24 21 19 18 19 19 20 20 19 19 17 15 14 13
28 26 34 34 31 21 17 19 19 17 13 14 15 8 4 6 6 11 17 18 19 19 19 23 24 25 24 21 23 22 25 24 22 20 20 23 23 24 23 22 19 18 17
30 31 31 31 32 29 19 21 24 17 13 14 12 19 16 7 5 4 11 14 17 19 23 19 20 21 22 25 22 25 23 24 25 25 24 21 22 24 26 27 24 23 22
26 31 32 31 34 31 32 23 23 17 16 16 16 10 16 16 14 13 10 13 10 13 17 19 23 21 22 25 22 24 28 26 25 25 28 28 25 25 25 25 28 27 26
38 31 31 34 35 27 27 26 20 22 22 18 19 17 16 11 13 14 11 17 13 10 14 19 21 23 24 21 20 25 24 24 24 25 27 28 29 29 27 26 26 28 28
39 40 39 39 31 29 32 26 29 29 21 24 21 20 19 20 18 17 15 12 11 15 13 23 24 22 18 18 15 21 23 22 20 18 18 21 24 26 26 27 28 30 31
38 42 45 44 41 37 39 36 32 19 21 21 21 21 20 21 21 20 17 14 3 11 13 14 15 17 15 13 14 17 15 15 14 14 16 19 21 22 22 23 25 27 28
35 37 38 37 40 39 33 33 25 24 24 24 24 21 23 23 22 21 20 21 16 4 7 13 13 13 15 14 12 13 11 13 15 15 16 18 20 20 21 23 25 27 29
35 35 35 37 36 35 32 30 29 29 30 29 27 24 22 24 24 22 22 24 23 20 5 13 16 13 14 15 13 13 11 15 16 17 18 19 20 23 24 26 27 28 31
37 38 36 35 37 36 34 31 32 32 32 31 29 25 26 26 27 27 25 26 28 24 12 9 14 17 17 12 11 10 10 10 12 16 18 20 22 23 24 26 27 30 32
38 39 38 37 37 38 36 35 34 33 32 32 29 25 28 30 30 30 28 33 31 28 17 15 19 15 16 12 12 11 9 12 13 14 21 20 21 23 25 28 31 33 35
37 36 37 38 39 39 39 39 36 33 31 29 26 27 30 28 29 35 33 29 27 26 23 14 11 11 11 11 10 9 10 11 13 15 18 18 18 21 23 23 25 27 30
37 37 38 38 37 36 34 32 34 35 38 40 41 38 36 38 41 37 33 30 28 25 20 16 13 10 9 9 9 9 11 12 12 13 15 16 15 17 18 20 25 25 24
36 36 36 37 36 35 35 35 32 33 38 38 39 39 37 39 36 37 35 32 30 28 20 16 12 8 9 11 11 9 10 11 13 15 14 11 12 16 18 19 22 22 22
35 34 34 35 34 33 36 38 33 32 35 35 36 34 32 31 28 31 31 30 30 26 19 13 12 11 13 10 9 9 9 10 10 8 9 15 16 19 19 20 22 27 31
32 32 32 32 32 32 33 36 33 34 34 34 34 32 28 27 29 30 26 26 22 19 16 14 12 10 8 8 8 9 10 11 13 14 15 18 18 21 19 20 23 28 32
30 29 29 30 27 29 33 30 30 34 29 26 27 28 30 29 30 30 27 22 18 14 12 10 11 8 6 6 7 8 9 11 14 15 15 17 15 20 20 21 25 27 21
22 23 23 28 31 34 31 29 30 29 24 22 23 25 29 30 28 25 25 18 14 11 11 11 11 11 9 9 8 5 9 10 12 14 14 16 14 19 23 25 16 16 16
24 24 23 22 21 20 18 22 29 27 25 24 22 22 25 25 22 15 19 21 17 11 7 4 3 2 3 4 7 6 8 11 12 11 4 7 13 16 10 13 13 22 17
Wind_Direction
153 151 155 162 163 167 167 165 165 157 155 150 150 147 146 141 133 138 152 159 160 158 155 153 151 152 149 142 138 136 133 134 136 137 132 134 127 119 108 102 93 83 78
157 154 154 160 166 174 171 170 167 165 155 159 155 151 152 148 142 147 153 164 173 173 172 169 162 163 165 161 156 153 149 152 151 155 155 154 147 136 121 104 94 88 82
162 161 163 166 170 172 169 169 171 167 160 164 162 161 163 158 161 156 160 170 184 184 186 187 184 179 181 183 182 176 173 169 166 170 171 174 172 165 161 137 96 79 65
176 173 167 170 170 168 169 170 171 169 167 167 165 170 172 174 178 175 179 179 189 197 206 199 197 196 196 200 200 196 193 189 187 188 191 192 195 194 200 216 280 312 309
181 172 176 178 169 169 173 174 173 179 168 168 168 176 181 184 192 192 197 199 204 203 208 218 215 210 209 207 207 210 209 206 201 203 205 208 207 210 215 241 254 272 284
183 179 179 176 167 176 179 178 175 181 172 166 175 179 185 194 202 205 208 209 215 216 218 215 217 223 224 223 217 218 223 223 223 218 216 216 217 217 227 239 248 268 277
189 187 186 177 173 181 185 175 177 179 170 176 169 188 205 214 212 216 215 216 221 220 222 222 220 225 226 233 230 226 226 228 229 228 226 225 225 228 231 239 244 253 261
194 194 184 182 184 182 187 174 181 182 182 183 194 196 203 211 228 226 224 225 225 224 228 226 223 228 227 231 231 234 230 233 235 236 235 233 232 235 239 239 241 245 249
194 203 198 198 196 195 188 194 196 193 194 196 205 221 205 237 209 207 225 228 227 225 226 230 232 231 229 229 235 234 236 236 233 239 243 243 240 240 242 243 242 244 247
197 202 202 204 205 207 204 210 210 209 215 215 211 234 242 253 240 236 210 221 226 231 232 233 240 241 236 241 238 232 234 241 244 245 245 250 251 252 249 246 244 245 242
199 204 208 213 216 216 224 226 221 221 225 235 230 232 233 238 246 255 268 240 217 234 236 235 242 239 241 241 241 240 245 248 251 254 254 255 258 259 261 265 250 248 252
202 194 206 214 222 218 227 223 228 229 234 246 243 245 239 231 232 237 252 265 273 243 243 246 242 241 239 240 238 237 251 252 252 259 256 259 261 260 260 263 263 259 259
200 203 206 216 218 224 233 232 237 232 232 238 239 241 246 250 249 238 234 247 233 232 232 246 245 244 236 241 239 245 243 249 257 255 255 260 263 263 263 265 264 267 268
199 205 214 219 222 227 236 237 231 226 230 235 239 239 246 248 243 222 224 211 210 228 224 226 235 227 226 226 229 238 231 231 236 249 261 266 266 266 266 267 266 265 267
205 208 211 212 218 221 223 224 229 230 235 241 247 247 247 246 240 233 229 219 217 211 213 223 215 212 211 219 210 212 219 233 238 246 255 261 263 267 270 272 272 272 273
206 204 207 213 215 220 225 232 237 240 242 244 247 246 247 243 234 238 233 228 224 226 233 207 203 208 196 195 206 215 232 247 253 252 251 257 264 271 271 273 274 275 276
209 210 210 213 218 224 230 235 238 241 244 247 243 241 241 241 234 235 231 230 227 217 212 184 184 196 192 198 223 232 236 251 257 265 261 262 268 271 272 275 277 277 278
217 217 219 223 226 228 227 230 235 238 240 240 241 239 241 237 236 236 233 239 223 217 201 176 196 196 204 202 218 234 257 253 252 259 265 267 270 272 274 276 276 278 280
218 221 224 229 232 234 235 235 235 236 236 237 236 246 247 246 246 248 236 227 218 206 201 176 167 186 201 208 245 265 244 244 251 260 277 289 290 282 278 279 280 281 282
219 219 222 226 231 233 232 232 226 223 238 252 257 251 251 247 241 232 229 216 203 195 195 188 190 182 198 227 225 238 243 246 262 271 276 282 288 294 296 297 294 295 296
222 222 222 224 226 225 222 227 230 234 239 246 249 244 243 243 237 234 217 205 198 186 177 184 179 174 190 202 216 233 249 266 271 275 278 276 285 287 286 288 289 294 286
223 224 226 225 226 226 225 222 225 229 240 239 235 236 234 236 227 216 210 203 193 179 172 168 173 186 202 208 224 239 256 266 283 267 263 286 290 286 285 285 284 285 291
221 222 226 226 229 230 231 231 238 239 236 238 232 228 217 209 201 190 181 181 182 185 190 180 173 190 199 208 217 236 249 255 263 272 283 281 283 279 284 287 289 291 295
221 220 223 225 227 224 230 241 241 228 230 223 220 210 199 181 181 176 163 159 157 160 167 172 177 170 185 203 223 241 256 266 272 275 274 276 279 281 290 290 291 293 295
210 216 218 221 223 232 238 236 223 212 202 191 192 191 181 172 168 165 156 149 145 148 164 174 180 192 210 216 214 234 250 261 271 275 273 277 281 294 296 292 290 298 305
208 210 212 222 228 229 226 213 206 192 170 160 161 161 165 160 152 155 154 153 145 155 143 161 164 193 200 235 250 231 256 263 273 286 236 281 294 310 305 287 293 307 301